Погода в Смоленске

Погода в Смоленске : погода сейчас, прогноз погоды и архив. Всё, что Вы хотите узнать о погоде в Смоленске!

Хотите узнать прогноз погоды в Смоленске? Тогда Вам сюда: Погода в Смоленске

Поиск расширенной информации на нашем сайте:

Другие новости

Новости СМИ2

Главная страница сайта

Новости сайта

02.10.2013

Напоминаем, что на нашем новом сайте вы можете получить высокодетализированные прогнозы погоды по пунктам России, СНГ и мира (включающие важные для авиации метеовеличины, такие как направление и скорость ветра, видимость, явления погоды, количество и форма облачности, нижняя и верхняя граница облачности), а также ознакомиться с разнообразными материалами по авиационной метеорологии и подборкой полезных ссылок на эту тему.

Сайт Метеоцентр.Азия посвящён разработке технологий оптимизации авиаметеорологического обслуживания, включая проектирование и перспективное создание нескольких автоматизированных авиаметеорологических систем:
- система выпуска высокодетальных прогностических карт явлений погоды для нижнего воздушного пространства по России и ближнему зарубежью;
- система верификации прогнозов TAF (выпускаемых синоптиками официальных АМСГ РФ и ближнего зарубежья) и AUTOTAF (выпускаемых сайтом Метеоцентр.Азия) - выявление ошибок, онлайн-сопоставление с фактической погодой METAR, автоматическое внесение коррективов в прогнозы при резком отклонении фактической погоды от прогноза, подсчёт оправдываемости прогнозов по элементам и в целом;
- система обработки, анализа и отображения авиаметеорологической информации для применения провайдерами метеорологической информации.

Рекомендуем: белый кот

Погода в Смоленске - сегодня

Время (UTC), дата Ветер
(°,м/с) 
Видим.   Явления Облачность Т
(°С)
Тd
(°С)
f(%) Тe
(°С)
Pmin
(гПа)
dP
(гПа)
Po
(мм)
O2
(г/м3)
Тmin Tmax R s Состояние
почвы
18 19.02.17 240 (ЮЗ) 5{11}  10 км    10/10 600 м 
[Sc]
+0.9 -1.6 83 -2  1012.8  -1  737  296    +1.2       
21 19.02.17 240 (ЮЗ) 3{11}  10 км    10/10 600 м 
[Sc]
+0.4 -1 90 -1  1012.1  -0.7  737  297           
00 20.02.17 240 (ЮЗ) 4{11}  4000 м  слаб. ливневой снег  10/10 600 м кучево-дожд. 
[Cb cap]
+0.3 -1 91 -2  1011.2  -0.9  736  296           
03 20.02.17 240 (ЮЗ) 4{11}  10 км  в посл. час ливневой снег  10/10 600 м кучево-дожд. 
[Cb cap]
+0.5 -0.7 92 -2  1010.2  -1  735  296  +0.2       
06 20.02.17 230 (ЮЗ) 4{10}  4000 м  дымка{ливн. осадки}  10/10 300 м кучево-дожд. 
[Cb cap]
+0.9 -0.5 90 -1  1009.1  -1  735  295  +0.2    30  равномерный
мокрый или
старый снег
100% 
09 20.02.17 230 (ЮЗ) 4{10}  10 км    10/10 300 м кучево-дожд. 
[Cb cap]
+1.6 -0.9 83 -1  1007.7  -1.3  734  294           
12 20.02.17 230 (ЮЗ) 4{10}  10 км    10/10 600 м 
[Sc]
+2.5 -0.6 80 1005.6  -1.9  732  292           
15 20.02.17 230 (ЮЗ) 5{13}  10 км    10/10 300 м 
[St]
+2.1 -0.3 84 -1  1003.5  -2.1  731  292      0.0     
18 20.02.17 230 (ЮЗ) 5-14{14}  10 км    10/10 300 м 
[Sc]
+2.1 -0.3 84 -1  1001  -2.4  729  291    +2.6       
21 20.02.17 220 (ЮЗ) 4{14}  4000 м  слаб. дождь  10/10 300 м 
[Ns]
+1.1 -0 92 -1  997.9  -3  726  291           
00 21.02.17 210 (ЮЗ) 4{13}  2000 м  снег{дождь}  10/10 100 м 
[Ns]
+0.3 -0.1 97 -2  993.8  -4  723  291           
03 21.02.17 220 (ЮЗ) 4{11}  4000 м  слаб. снег [диам. отлож. мокр. снега 3 мм]  10/10 200 м 
[Ns]
+0.3 +0.1 99 -2  990.8  -2.9  721  290  +0.2       
06 21.02.17 220 (ЮЗ) 3{10}  2000 м  слаб. снег [диам. отлож. мокр. снега 3 мм]  10/10 200 м 
[Ns]
+0.2 -0 99 -2  988.7  -2.1  720  290  +0.2    33  равномерный
мокрый или
старый снег
100% 
09 21.02.17 220 (ЮЗ) 2000 м  слаб. снег  10/10 200 м 
[Ns]
+0.7 +0.3 97 -1  987.1  -1.5  719  289           
12 21.02.17 230 (ЮЗ) 4000 м  слаб. дождь{снег}  10/10 200 м 
[Ns]
+2.1 +1.2 94 986.4  -0.5  718  287           
15 21.02.17 260 (З) 4000 м  слаб. дождь  10/10 300 м 
[Ns]
+2.6 +2.1 96 +2  987.5  1.1  719  287         
18 21.02.17 280 (З) 0200 м  слаб. дождь  10/10 300 м 
[Ns]
+2 +1.6 97 +1  989.3  1.7  720  288    +2.6     
21 21.02.17 240 (ЮЗ) 4000 м  слаб. дождь  10/10 300 м 
[Ns]
+1.6 +1.3 98 +2  989.8  0.4  721  288           
00 22.02.17 310 (СЗ) 4000 м  слаб. снег{дождь}  10/10 200 м 
[Frnb|Ns]
+0.1 -0.2 98 +1  990.9  0.9  721  290           
03 22.02.17 350 (С) 2000 м  слаб. снег [диам. отлож. мокр. снега 6 мм]  10/10 200 м 
[Frnb|Ns]
+0.2 -0.1 98 -1  993.3  2.4  723  291  +0.1       
06 22.02.17 330 (СЗ) 4000 м  дымка{снег} [диам. отлож. мокр. снега 9 мм]  10/10 200 м 
[Ns]
-1.6 -2.6 93 -3  997.6  726  295  -1.6    30  равномерный
мокрый или
старый снег
100% 
09 22.02.17 020 (С) 10 км  {ливн. осадки} [диам. отлож. мокр. снега 9 мм]  10/6 300 м кучево-дожд., средняя 
[Cb cap|Ac trans]
-3.4 -4.9 89 -5  1000.2  2.3  728  297           
12 22.02.17 300 (СЗ) 10 км  {ливн. осадки} [диам. отлож. мокр. снега 9 мм]  10/5 300 м средняя 
[Sc diur, vesp|Ac trans]
-4.1 -5.6 89 -5  1000.6  0.3  728  298           
15 22.02.17 240 (ЮЗ) 10 км  [диам. отлож. мокр. снега 9 мм]  10/10 300 м 
[Sc]
-5.3 -6.8 89 -5  1000.3  -0.4  728  300      0.0     
18 22.02.17 140 (ЮВ) 10 км  [диам. отлож. мокр. снега 9 мм]  10/10 300 м 
[Sc]
-5.6 -7.1 89 -7  998.3  -2  726  299    -1.6  0.0     
Время (UTC), дата Ветер
(°,м/с) 
Видим.   Явления Облачность Т
(°С)
Тd
(°С)
f(%) Тe
(°С)
Pmin
(гПа)
dP
(гПа)
Po
(мм)
O2
(г/м3)
Тmin Tmax R s Состояние
почвы

Для получения пояснительной информации подведите курсор к названию столбца.

ПОГОДА в Смоленске - архив

Всё, что Вы хотите узнать о погоде в Смоленске - удобно и подробно!

Выберите нужную дату (начиная с 1 января 2015* года) и нажмите кнопку "Найти".
Будут отображены архивные сводки погоды по пункту Смоленск, начиная с указанной даты.


Отображать данные в формате CSV (для использования в таблицах Excel)


Внимание! Наш архив погоды предназначен исключительно для личного некоммерческого использования в познавательных целях. Если Вам необходимы официальные справки о состоянии погоды (для производственных, юридических, коммерческих и т.п. целей), обращайтесь в органы Росгидромета.

*Примечание: данная дата относится к архиву по метеостанциям СССР (Россия, СНГ, Балтия).
Архив по метеостанциям Зарубежной Европы и Азии (кроме Китая) хранится 10 дней, по другим регионам земного шара (Китай, Африка, Америка, Австралия, Океания) - 1 день.

Смоленск - район местоположения метеостанции


Название, широта, долгота, высота метеостанции:
Смоленск 54.8°ш. 32.1°д. 239 м над ур. моря [Российская Федерация]

Дополнительная информация

В oтличие oт бoльшинства пoгoдных сайтoв мы публикуем пoдрoбную метеoинфoрмацию в детальнoм прoфессиoнальнoм фoрмате.

Характеристики температуры и влажнoсти вoздуха измеряются на высoте 2 м в тени вдали oт зданий и деревьев.
Скoрoсть ветра измеряется на высoте 10 м (на урoвне рoста челoвека скoрoсть ветра ниже в 1.5-2 раза). Если метеoстанция нахoдится в гoрoде или в лесу, тo скoрoсть ветра занижена на 2-4 м/с пo сравнению с oткрытым местoм. Скoрoсть ветра над акватoриями крупных рек и oзёр, а также на вершинах хoлмoв на 2-5 м/с выше, чем в oбычных услoвиях.
Атмoсфернoе давление в разных тoчках местнoсти мoжет значительнo oтличаться oт давления на метеoстанции, в зависимoсти oт услoвий рельефа (при пoдъёме на 10 м давление пoнижается примернo на 1 мм рт.ст.).